Regional Weather Roundup
Issued by NWS Wakefield, VA

Home | Current Version | Previous Version | Text Only | Print | Product List | Glossary On
Versions: 1 2 3 4 5 6 7 8 9 10 11 12 13 14 15 16 17 18 19 20 21 22 23 24 25 26 27 28 29 30 31 32 33 34 35 36 37 38 39 40 41 42 43 44 45 46 47 48 49 50
000
ASUS41 KAKQ 231010
RWRAKQ

REGIONAL WEATHER ROUNDUP
NATIONAL WEATHER SERVICE WAKEFIELD VA
600 AM EDT WED JUL 23 2014

Note: "fair" indicates few or no clouds below 12,000 feet with no
significant weather and/or obstructions to visibility. * = Denotes
station may not report precipitation (e.g., rain,snow,etc.),
thunder or fog.

VAZ042-051-052>054-056-231100-
NORTHERN VIRGINIA

CITY           SKY/WX    TMP DP  RH WIND       PRES   REMARKS
WASH NATIONAL  PTCLDY    75  69  81 S9        30.00F
DULLES         PTCLDY    71  69  93 S8        30.00F
FORT BELVOIR   PTCLDY    72  70  95 CALM      30.00F
QUANTICO       PTCLDY    74  70  87 SW8       30.01F
FREDERICKSBRG* CLEAR     72  71  98 S3        30.00F
STAFFORD*      PTCLDY    69  69 100 CALM      30.04F
WARRENTON      CLOUDY    73  73 100 SW3       30.00S
CULPEPER*      PTCLDY   N/A N/A N/A CALM      30.00F
MANASSAS*      CLEAR     72  70  94 CALM      30.00S
LEESBURG*      PTCLDY    72  72 100 CALM      30.01S
WINCHESTER     PTCLDY    73  68  83 SW5       30.00S
$$

VAZ048-049-060>072-079>083-231100-
CENTRAL AND SOUTH CENTRAL VIRGINIA...AND NORTH CENTRAL NORTH CAROLINA

CITY           SKY/WX    TMP DP  RH WIND       PRES   REMARKS
RICHMOND       PTCLDY    70  68  93 S5        30.03F FOG
CHESTERFIELD*  CLOUDY    68  59  73 CALM      30.04F
HANOVER        CLEAR     68  67  96 CALM      30.04F
TAPPAHANNOCK*  CLEAR     67  65  90 CALM      30.03F
CHARLOTTSVILLE MOCLDY    70  69  97 SW5       30.02F
ORANGE*        CLEAR     70  68  94 S6        30.03S
LOUISA*        CLEAR     70  70 100 S3        30.01F FOG
FARMVILLE*     FOG       68  66  94 CALM      30.02F VSB<1/4
SOUTH HILL*    CLOUDY    72  72 100 CALM      30.10S FOG
ROANOKE RAPIDS FOG       66  64  94 CALM      30.05S VSB 1/2
RALEIGH        FOG       71  69  93 CALM      30.07R VSB 1
$$

VAZ088>098-231100-
SOUTHEAST VIRGINIA

CITY           SKY/WX    TMP DP  RH WIND       PRES   REMARKS
NORFOLK        PTCLDY    75  72  90 SW3       30.03F
VIRGINIA BEACH CLOUDY    74  73  97 CALM      30.02F FOG
NORFOLK NAVAL  CLOUDY    76  73  91 W5        30.04F
WEST POINT*    CLOUDY    75  73  91 SW3       30.04F
NEWPORT NEWS   CLOUDY    78  73  84 W6        30.03F
LANGLEY AFB    CLOUDY    75  75 100 W5        30.02F
FORT EUSTIS    CLOUDY    73 N/A N/A VRB2      30.02F
WILLIAMSBURG*  CLOUDY    75  73  94 CALM      30.04F
FRANKLIN*      CLOUDY    73 N/A N/A CALM      30.04S VSB<1/4
WAKEFIELD      CLOUDY    73  72  96 CALM      30.04F FOG
$$

VAZ020-022-025-037-045-231100-
WESTERN AND SOUTHWEST VIRGINIA

CITY           SKY/WX    TMP DP  RH WIND       PRES   REMARKS
STAUNTON*      PTCLDY    69  66  90 CALM      30.07S
HOT SPRINGS VA MOCLDY    64  62  92 W10       30.21S
LYNCHBURG      CLEAR     68  68 100 CALM      30.07F
DANVILLE       FOG       68  66  93 SW5       30.06F VSB 3/4
MARTINSVILLE   CLOUDY    65  65  98 CALM      30.10S FOG
ROANOKE        CLEAR     68  66  93 CALM      30.09F
BLACKSBURG     MOCLDY    64  64 100 CALM      30.15S FOG
DUBLIN*        FOG       63  63 100 CALM      30.15S VSB 1/4
MARION*        FOG       62  62 100 CALM      30.19S VSB 1/4
HILLSVILLE*    FOG       64  64  99 SW3       30.16F VSB 1/2
RICHLANDS*     MOSUNNY   69  66  89 CALM      30.17R
WISE*          PTCLDY    66  66 100 S5        30.17S
ABINGDON*      CLEAR     67  66  98 CALM      30.15R
$$

MDZ021>025-VAZ099-100-231100-
SOUTHERN MARYLAND AND THE DELMARVA PENINSULA

CITY           SKY/WX    TMP DP  RH WIND       PRES   REMARKS
PATUXENT RIVER PTCLDY    73  71  93 S3        30.01F
BAY BRIDGE APT   N/A     73  72  94 S5        30.00F
LEONARDTOWN      N/A     72  68  88 CALM      30.03F
DOVER          CLOUDY    71  71 100 S7        29.99F
GEORGETOWN     CLOUDY    69  68  96 S9        30.03S FOG
EASTON         CLEAR     74  74 100 CALM      30.04F
CAMBRIDGE      MOCLDY    72  68  88 CALM      30.01F
SALISBURY      NOT AVBL
OCEAN CITY     FOG       66  65  96 CALM      30.02F VSB 3/4
WALLOPS ISLAND CLEAR     70  68  93 CALM      30.03S
ACCOMACK*      FOG       68  66  94 CALM      30.03S VSB 1/4
$$

NCZ012>017-030>032-231100-
EASTERN NORTH CAROLINA

CITY           SKY/WX    TMP DP  RH WIND       PRES   REMARKS
ELIZABETH CITY MOCLDY    74  73  97 W5        30.04S
AHOSKIE*       CLOUDY    70  69  96 CALM      30.05S VSB 1
EDENTON*       CLOUDY    76  74  96 W3        30.04S
CURRITUCK*     CLOUDY    75  72  90 CALM      30.04F FOG
KILL DEVIL HLS CLOUDY    75  74  97 W5        30.03S
MANTEO         NOT AVBL
CAPE HATTERAS  CLEAR     77  74  90 W7        30.06R
GOLDSBORO      CLOUDY    76  76 100 SW5       30.04S
WASHINGTON     CLOUDY    75  73  95 CALM      30.06S
GREENVILLE     CLOUDY    73  73 100 CALM      30.07S
NEW BERN       CLOUDY    75  73  94 SW3       30.07S
WILMINGTON     CLEAR     73  72  96 CALM      30.06S
$$

VAZ048-231100-
ELSEWHERE

CITY           SKY/WX    TMP DP  RH WIND       PRES   REMARKS
HARRISBURG PA  PTCLDY    73  68  84 SE3       29.97F
BALTIMORE      PTCLDY    71  68  90 S6        29.98F
ANNAPOLIS      CLEAR     73  70  90 CALM      29.99F
ANDREWS AFB    PTCLDY    72  71  97 S7        30.01F
WILMINGTON DE  CLEAR     71  68  90 S6        30.00F
PHILADELPHIA   MOCLDY    72  65  78 S9G18     30.00F
WILDWOOD NJ*   CLOUDY    72  66  83 SW5       30.03S
ATLANTIC CITY  CLEAR     68  67  96 S3        30.02S
HENDERSON NC   FOG       71  69  95 S3        30.06F VSB 1/4
GREENSBORO     PTCLDY    68  67  96 SW3       30.08R
ROCKY MOUNT    FOG       73  71  93 CALM      30.06S VSB 3/4
FAYETTEVILLE   CLOUDY    75  74  96 SW7       30.06R FOG
CHARLOTTE      PTCLDY    71  69  93 CALM      30.09S FOG
$$

VAZ100-231100-
MARINE

STATION/POSITION TIME  TEMP    WIND        PRES    WAVE   SWELL
                       AIR SEA DIR/SP/G            HT/PER HT/PER
                 (UTC) (F)     (DEG/KT/KT) (MB)    (FT/S) (FT/S)
44066 TX TWR #4  1000   72 73  220/ 10/ 10 1016.4F   2/ 8   2/ 8
CAPE MAY NJ      1000   71 76  240/  4/  5 1016.4S
LEWES DE         1000   71 71  230/  4/  6 1016.1S
15NM E FENWICK I 1000   74 76              1016.7F   2/ 8
OCEAN-CITY-INLET 1000   71 73     CALM     1016.2F
WACHAPREAGUE VA  1000   71 81   CALM  /  2 1016.6S
THOMAS POINT MD  1000   74 79  220/ 10/ 11 1016.3F
GOOSES REEF MD   1000   75     230/ 10/ 12 1016.5F
COVE POINT MD    1000   74     240/  9/ 11 1016.0F
SOLOMONS ISLAND  1000      81                N/A
BISHOPS HEAD MD  1000   77 80  220/ 10/ 11 1016.0F
PINEY POINT MD   1000          230/  4/  5   N/A
POTOMAC MD       1000   76     240/  6/  8 1015.9F
CAMBRIDGE MD     1000   73 80  200/  1/  3 1016.0F
LEWISETTA VA     1000   74 81  220/  6/  7 1016.3F
RAPPAHANNOCK LGT 1000          260/  7/  8 1017.2F
STINGRAY PT      1000   76     270/  6/  8 1017.5F
YORK RVR RNG VA  1000   76     260/  6/  7 1016.2F
YORKTOWN VA      1000   75 80  260/  4/  4 1016.6F
JAMESTOWN VA     1000   72     280/  4/  6   N/A
DOMINION TERM VA 1000   74     280/  5/  6 1017.0F
KIPTOPEKE VA     1000      80  260/  5/  6   N/A
CHES BAY BRIDGE  1000   76 78  230/  5/  6 1016.3F
CAPE HENRY VA    1000   74     220/  3/  4 1015.8S
WILLOUBY STN VA  1000          260/  7/  8 1016.1F
S CRANEY ISL VA  1000          210/  5/  6 1016.9F
CAPE HENRY BUOY  1000      76                N/A     2/ 8
1ST LANDING BUOY 1000   76     240/  6/  8 1016.6S
CAPE CHARLES BUO 1000      75                N/A     2/ 8
OFFSHORE WE BUOY 0900      77                N/A     3/ 8
64NM E OF VA BCH 1000   77 78  230/ 10/ 10 1016.5R   3/ 7   2/ 7
DUCK PIER NC     1000   76 73  230/  7/ 10 1016.2F
44056 DUCK FRF   1000                        N/A     2/ 7
OREGON INLET NC  1000   77 79  250/ 11/ 13 1017.1F
HATTERAS NC      1000   77 82  240/  6/  8 1018.1S
DIAMOND SHLS NC  1000          VRB 14/ 16  1017.6R   3/ 8   2/ 8
CAPE LOOKOUT NC  0900   78     240/  9/ 11 1017.8R
$$


USA.gov is the U.S. government's official web portal to all federal, state and local government web resources and services.